Location: Cheyres
(46.8153°N, 6.7877°E)
Time: 03:15:55
(UTC+00:00)

Cosmos 1743 - Pass Details

Date: 11 May 2021
Orbit: 510 x 525 km, 82.6° (Epoch: 18 June)

Event Time Altitude Azimuth Distance (km) Brightness Sun altitude
Rises 22:43:57 0° 339° (NNW) 2,652 7.7 -24.3°
Reaches altitude 10° 22:46:19 10° 327° (NNW) 1,762 6.3 -24.3°
Enters shadow 22:49:23 25° 274° (W) 1,069 4.4 -24.4°
